Location: Newark
(37.7892°N, 97.1083°W)
Time: 08:04:23
(UTC+00:00)

Hubble Space Telescope - Pass Details

Date: 14 December 2019
Orbit: 536 x 540 km, 28.5° (Epoch: 25 January)

Event Time Altitude Azimuth Distance (km) Brightness Sun altitude
Exits shadow 11:35:10 - 195° (SSW) 2,032 3.7 -23.1°
Reaches altitude 10° 11:36:41 10° 177° (S) 1,782 3.6 -22.8°
Maximum altitude 11:37:49 11° 161° (SSE) 1,723 3.7 -22.6°
Drops below altitude 10° 11:38:56 10° 145° (SE) 1,784 4.0 -22.3°
Sets 11:42:50 0° 108° (ESE) 2,677 5.9 -21.6°
